EST,Max TemperatureF,Mean TemperatureF,Min TemperatureF,Max Dew PointF,MeanDew PointF,Min DewpointF,Max Humidity, Mean Humidity, Min Humidity, Max Sea Level PressureIn, Mean Sea Level PressureIn, Min Sea Level PressureIn, Max VisibilityMiles, Mean VisibilityMiles, Min VisibilityMiles, Max Wind SpeedMPH, Mean Wind SpeedMPH, Max Gust SpeedMPH,PrecipitationIn, CloudCover, Events, WindDirDegrees
2012-11-1,48,42,36,37,30,26,89,66,44,29.78,29.71,29.66,10,10,3,18,12,26,0.00,7,,294
2012-11-2,41,38,35,31,27,25,77,63,55,30.07,29.92,29.78,10,10,7,16,9,24,0.00,8,,320
2012-11-3,39,34,28,29,27,23,91,75,59,30.18,30.15,30.08,10,10,10,7,4,,0.00,5,,335
2012-11-4,39,33,27,28,24,22,82,68,53,30.20,30.17,30.15,10,10,10,8,2,,0.00,6,,329
2012-11-5,41,33,25,28,24,21,90,74,49,30.21,30.17,30.14,10,10,5,6,1,,0.00,5,,11
2012-11-6,43,34,24,28,24,21,90,74,44,30.14,30.05,29.97,10,9,7,9,3,,0.00,3,,134
2012-11-7,46,37,28,32,27,23,89,71,47,30.15,30.05,29.97,10,9,7,8,3,,0.00,2,,40
2012-11-8,48,36,24,31,26,22,91,71,44,30.22,30.15,30.11,10,8,2,7,0,,0.00,0,,229
2012-11-9,55,44,32,39,34,28,87,68,45,30.17,30.12,30.07,10,6,2,12,4,16,0.00,5,Rain,169
2012-11-10,62,54,47,46,43,39,82,66,45,30.12,30.06,30.00,10,8,4,13,7,18,0.00,5,Rain,152
2012-11-11,68,61,54,43,39,30,60,46,31,30.09,30.02,29.92,10,10,10,22,13,33,0.00,1,,184
2012-11-12,61,46,32,51,34,21,89,71,37,30.22,30.01,29.88,10,9,4,23,14,28,0.00,8,Rain-Snow,238
2012-11-13,33,28,24,26,20,17,84,64,51,30.52,30.41,30.23,10,10,5,14,6,28,0.00,6,Snow,284
2012-11-14,40,30,20,26,21,17,89,70,43,30.57,30.50,30.42,10,10,7,8,1,,0.00,0,,161
2012-11-15,44,36,28,29,27,25,89,74,51,30.42,30.37,30.32,10,8,4,6,0,,0.00,3,,268
2012-11-16,53,38,24,34,28,21,90,73,38,30.49,30.43,30.36,10,6,3,7,1,,0.00,0,,250
2012-11-17,53,40,27,34,29,24,94,69,32,30.59,30.54,30.49,10,6,0,8,2,,0.00,0,Fog,150
2012-11-18,55,44,35,41,33,24,95,73,31,30.53,30.47,30.40,10,6,0,10,5,,0.00,3,Fog,124
2012-11-19,56,44,32,41,31,22,97,67,29,30.40,30.29,30.17,10,6,0,9,4,,0.00,2,Fog,144
2012-11-20,57,48,40,39,35,29,85,62,40,30.17,30.12,30.06,10,9,5,5,2,,0.00,7,Rain,125
2012-11-21,57,44,32,40,37,32,94,76,48,30.23,30.17,30.15,10,5,0,9,2,,0.00,1,Fog,213
2012-11-22,61,52,42,45,39,35,90,67,37,30.14,30.00,29.78,10,7,2,18,8,25,0.00,2,Rain,197
2012-11-23,54,43,32,47,30,18,85,69,56,30.00,29.82,29.68,10,9,2,24,15,34,0.00,8,Rain-Snow,260
2012-11-24,32,30,29,19,17,15,64,57,52,30.10,30.05,30.00,10,10,10,17,12,24,0.00,8,,287
2012-11-25,35,30,26,26,23,19,86,72,63,30.00,29.89,29.81,10,10,1,13,7,17,0.00,8,Snow,235
2012-11-26,33,31,29,24,19,14,74,61,48,30.27,30.14,29.99,10,10,10,10,4,,0.00,8,,298
2012-11-27,35,28,21,18,15,12,74,57,39,30.34,30.27,30.20,10,10,10,9,3,,0.00,1,,264
2012-11-28,40,32,25,23,18,14,71,58,41,30.28,30.24,30.17,10,10,10,15,7,21,0.00,3,,252
2012-11-29,48,38,27,25,23,20,72,56,36,30.25,30.22,30.15,10,10,7,13,7,18,0.00,1,,221
2012-11-30,42,37,32,35,30,25,86,73,62,30.24,30.18,30.13,10,6,4,13,5,17,0.00,8,,93